ONEWEB-0167

Last updated on Sun Apr 25 2021 00:02:03 GMT+0000 (Coordinated Universal Time)

1 48064U 21025Y 21114.58336806 -.01086276 00000-0 -57768-1 0 9996 2 48064 87.4104 339.3884 0008967 160.4267 74.7377 15.18432691 1750

Satellite not in orbit

ONEWEB-0167